Wind_Speed
24 22 22 23 23 14 9 20 19 17 21 15 13 18 19 18 22 17 19 19 19 18 17 17 17 15 15 15 14 13 11 7 8 6 6 9 9 8 10 12 11 9 6 4 5 5 5 4 3
18 14 19 22 22 20 15 22 22 16 19 20 19 21 19 18 23 18 15 17 18 16 17 18 15 16 15 13 12 10 10 7 8 6 8 11 10 11 11 13 13 12 9 7 6 7 6 4 3
17 18 11 18 21 12 13 17 15 14 13 18 17 19 19 17 20 15 17 15 18 17 15 17 14 15 14 12 11 11 10 10 10 11 11 11 12 12 14 12 11 12 12 9 7 6 6 3 3
15 12 14 22 22 12 11 9 12 14 13 14 18 13 15 18 20 17 15 15 17 15 13 14 13 13 12 12 11 12 11 12 14 13 12 13 13 13 12 12 12 12 12 12 10 7 5 4 1
11 9 14 16 24 20 23 14 10 9 8 11 14 10 14 14 18 16 15 14 15 15 13 13 13 13 12 11 11 10 11 13 14 13 12 11 10 10 10 11 11 10 10 10 9 8 5 5 4
11 9 12 16 15 22 22 17 9 6 7 6 10 9 9 10 14 12 13 13 13 15 13 12 12 11 11 10 11 12 12 12 10 9 9 9 9 9 7 7 7 8 8 8 7 6 5 4 4
13 9 11 8 23 22 17 16 7 5 7 5 9 12 8 10 11 12 13 13 13 13 12 12 13 11 10 11 10 9 9 9 10 10 10 9 11 10 7 7 8 6 7 7 6 6 5 5 5
10 3 10 12 21 18 18 15 12 9 7 7 10 13 10 11 12 13 15 15 14 13 12 11 11 9 8 7 6 7 7 8 9 11 11 10 11 11 8 6 8 8 9 8 8 7 6 6 5
12 14 18 15 13 13 15 14 9 7 6 7 9 10 13 9 10 11 12 11 10 10 9 9 8 8 10 6 5 6 7 8 8 10 11 11 11 14 6 7 8 9 9 8 7 7 8 7 8
11 7 13 12 9 17 15 6 4 5 7 6 7 8 11 13 12 13 13 15 13 14 15 14 12 11 10 9 7 8 9 9 9 10 9 8 9 10 10 9 9 10 10 10 10 9 8 9 10
12 10 7 8 7 14 16 7 8 7 3 5 6 7 7 9 12 13 16 17 16 15 13 11 13 11 8 9 9 9 10 10 11 11 11 10 11 10 8 8 9 8 9 9 11 10 11 8 11
8 9 10 12 18 16 10 15 8 5 6 7 6 6 7 8 9 10 13 13 12 10 8 10 12 10 8 9 10 11 13 12 13 12 11 10 10 11 12 9 11 12 13 12 12 11 12 13 11
10 5 8 14 16 13 8 12 9 8 8 8 5 5 6 6 7 8 8 10 8 8 10 11 11 11 10 9 10 13 13 13 11 11 12 11 10 9 9 10 10 10 12 11 11 11 12 12 13
6 9 12 10 6 5 5 1 7 7 7 5 2 5 6 6 6 7 8 10 9 7 9 10 10 11 11 10 10 11 11 12 12 11 10 10 10 10 10 11 12 11 11 12 11 11 12 11 11
19 13 12 9 7 12 6 4 5 7 7 5 3 4 7 9 9 8 9 8 8 7 7 7 8 8 7 8 8 10 10 11 12 13 12 10 10 11 11 13 14 13 14 15 14 12 12 13 11
21 23 8 11 12 10 5 7 2 2 5 6 2 4 7 8 9 8 6 6 7 6 6 5 5 5 4 5 6 7 10 12 13 14 13 11 10 11 11 11 13 15 16 16 15 14 14 14 14
28 23 13 6 1 7 2 9 7 6 4 4 2 3 6 6 7 7 6 4 4 3 3 3 5 5 4 5 6 8 8 10 12 13 13 13 12 11 13 14 15 15 16 17 18 17 16 17 17
28 17 13 3 10 9 6 7 8 10 14 15 7 6 2 4 4 5 6 5 4 5 6 5 5 5 6 6 6 7 7 8 10 11 13 13 13 13 14 13 14 15 16 17 18 19 19 19 19
21 15 5 8 10 13 11 11 6 13 16 9 7 7 5 3 3 2 4 6 5 4 5 5 4 5 5 7 8 8 7 8 9 10 11 11 12 12 13 14 14 15 16 17 18 19 21 20 20
24 20 12 3 10 21 19 15 9 11 9 3 2 4 1 4 3 3 3 4 5 4 3 3 3 3 4 6 6 8 9 10 11 12 13 12 13 12 13 13 15 16 17 19 20 22 23 24 21
25 22 20 4 16 23 22 21 18 14 6 4 9 10 11 8 9 7 7 6 6 5 2 1 3 5 4 6 8 9 10 12 14 14 15 16 17 17 17 18 18 19 20 22 22 23 23 26 26
32 22 11 14 24 33 23 23 25 19 10 6 13 19 19 7 11 14 11 8 6 4 4 5 8 8 9 10 11 12 14 14 14 15 16 18 19 21 22 22 23 23 24 25 26 26 25 25 28
30 23 16 19 22 23 25 28 19 21 15 11 15 8 11 15 14 15 13 12 9 9 9 10 12 13 13 14 16 17 18 18 19 18 19 19 20 21 22 23 24 25 27 29 30 30 28 28 29
35 27 29 23 24 27 26 23 26 27 24 17 20 18 13 11 11 12 14 13 14 13 14 16 17 18 19 19 19 22 23 21 20 21 23 25 26 25 26 26 26 27 28 30 31 31 31 30 31
42 33 35 38 33 32 25 28 26 28 29 20 23 20 16 15 12 15 15 15 19 21 20 20 22 23 24 22 21 21 22 22 21 24 26 27 26 26 26 26 25 26 28 30 31 33 33 33 35
38 36 36 40 49 43 35 37 17 13 16 17 25 19 12 12 5 11 12 14 12 18 21 23 23 22 21 20 18 20 19 19 22 26 28 28 27 28 27 26 26 26 29 32 35 36 35 36 38
33 41 34 33 39 27 28 25 17 19 21 19 18 17 15 16 15 12 10 12 16 18 24 22 20 20 19 19 19 18 20 19 21 24 27 27 27 28 26 25 26 29 31 34 34 35 37 38 39
30 23 29 39 31 31 31 24 21 14 20 16 16 17 18 23 19 19 10 7 10 14 18 21 21 21 21 21 23 23 23 23 22 24 27 29 29 27 26 26 27 31 34 37 37 38 40 41 40
28 31 27 28 26 37 29 24 21 21 23 15 16 15 22 24 22 15 8 7 10 12 15 21 23 23 25 26 27 28 25 26 25 23 26 28 28 28 25 27 29 33 37 37 38 40 41 41 44
25 34 35 35 39 32 34 28 28 24 26 17 14 19 23 28 22 13 10 14 15 19 16 21 23 25 29 32 31 29 27 28 27 26 26 29 29 30 30 31 33 35 39 41 41 42 44 44 43
Wind_Direction
58 64 72 43 51 73 69 79 77 77 82 96 94 110 112 106 95 97 103 96 90 92 94 95 90 99 96 97 94 97 94 92 85 86 88 76 70 65 56 47 38 28 25 2 351 5 17 19 51
88 79 62 49 35 11 16 57 60 83 95 98 96 107 105 103 97 98 93 91 91 87 88 93 102 96 97 95 89 85 72 62 62 66 58 51 44 40 43 41 36 28 20 1 342 334 349 22 62
96 93 58 44 24 352 27 47 56 80 94 96 91 105 113 110 107 101 100 99 95 89 91 93 95 88 81 74 70 63 58 50 52 42 42 39 32 30 37 35 31 27 24 20 7 335 328 355 79
89 100 74 56 46 34 30 55 82 92 100 109 111 109 106 114 100 102 99 101 100 98 99 100 96 88 81 73 65 59 53 47 45 44 39 32 34 36 34 31 27 19 18 16 20 10 328 301 268
97 85 68 57 30 52 42 33 38 49 73 110 116 118 117 120 111 111 108 98 95 90 84 81 73 69 70 70 64 54 47 46 44 41 39 38 27 26 19 19 13 11 16 26 15 15 352 309 301
144 126 86 63 41 44 37 22 24 35 52 76 95 108 114 124 112 114 111 106 101 98 90 82 76 69 68 67 66 62 59 57 55 51 43 38 32 27 30 34 31 30 9 16 15 16 341 347 316
171 116 111 66 37 34 33 54 38 58 65 61 107 104 113 122 121 124 121 121 118 110 103 98 93 85 76 72 72 71 60 48 43 36 35 24 20 10 359 9 9 3 15 12 4 19 356 344 330
171 25 78 53 35 39 46 52 78 69 77 86 90 108 111 117 121 121 118 121 117 110 104 103 104 96 84 74 51 35 35 29 21 11 3 358 2 2 13 5 359 352 349 348 343 348 349 343 321
88 52 68 17 3 52 47 19 23 54 70 86 95 109 114 109 115 120 126 128 125 121 124 117 110 82 72 65 52 58 63 50 42 32 24 24 20 25 15 351 343 342 336 334 320 325 322 315 306
75 56 70 22 4 6 32 14 355 29 32 47 95 102 117 126 120 122 122 114 120 114 102 95 109 102 76 80 68 52 47 54 50 37 23 15 17 20 20 2 359 351 350 338 328 332 315 311 303
106 101 39 341 335 356 12 17 7 73 36 26 66 96 97 99 109 116 120 119 114 108 107 109 113 113 97 81 71 55 57 49 47 42 29 18 11 2 6 2 354 354 342 327 322 310 307 308 298
354 102 56 311 327 332 340 338 47 58 33 35 12 62 67 83 100 110 118 124 117 110 111 111 110 105 87 77 58 49 49 35 27 28 26 11 9 2 357 359 343 335 327 325 323 325 325 318 299
342 339 328 313 320 336 316 323 34 32 23 25 13 51 68 81 84 108 118 122 121 112 99 90 91 93 87 75 62 49 34 29 17 16 10 13 11 12 1 2 358 339 333 340 336 334 327 324 318
186 268 271 292 27 319 276 75 25 34 29 12 47 84 81 78 74 75 91 103 104 95 84 80 77 78 84 74 54 38 28 22 15 22 16 8 11 21 15 21 18 16 12 11 5 354 345 344 328
250 244 261 101 98 56 11 18 26 36 24 7 47 90 96 89 95 87 81 82 97 100 91 80 74 75 84 74 51 31 27 32 29 26 31 26 18 13 22 14 13 12 7 5 7 4 354 343 340
226 248 244 134 77 83 89 3 250 70 47 13 351 121 111 100 84 78 72 73 84 86 86 88 80 82 74 73 39 27 27 33 33 23 22 24 20 17 9 8 9 3 359 1 2 7 360 352 349
213 231 221 177 109 37 79 38 346 308 352 350 338 146 133 125 111 87 76 69 75 86 81 75 77 69 55 40 19 22 31 25 24 21 22 20 13 12 1 359 1 353 351 354 357 356 356 351 347
200 212 216 10 309 314 -0 19 3 330 350 317 322 341 201 164 118 120 110 106 106 103 106 82 53 48 40 27 24 24 28 28 20 21 16 12 6 357 353 348 341 341 345 348 344 340 337 338 338
172 210 259 353 336 325 322 332 332 344 325 323 290 249 239 223 153 136 137 134 139 131 119 106 70 52 43 29 19 5 355 2 7 10 13 10 4 353 341 336 331 329 328 332 330 329 325 326 327
167 186 208 326 287 308 304 307 296 336 302 203 195 273 314 257 237 174 163 164 149 147 137 96 69 33 21 7 3 356 342 338 336 346 348 351 351 348 339 331 327 325 324 324 322 321 319 319 322
173 189 221 298 266 266 279 295 289 297 243 240 293 273 280 236 232 229 219 187 174 188 180 335 318 304 317 326 333 331 335 333 328 329 331 332 333 332 328 327 326 325 326 324 320 316 313 313 316
184 179 203 242 252 250 284 294 290 292 280 275 317 307 302 246 242 227 227 226 214 223 234 251 263 279 295 308 315 321 319 314 312 318 322 324 325 324 323 321 319 320 321 321 318 315 312 310 312
172 182 212 239 242 251 259 266 287 288 292 318 325 317 286 292 281 244 224 230 240 250 254 261 264 275 287 303 310 308 301 297 298 308 317 317 317 318 316 314 313 314 316 317 315 314 312 309 310
176 193 206 232 242 245 256 263 270 277 294 293 298 298 303 310 264 259 260 240 240 247 261 264 268 273 278 283 291 291 290 294 300 307 309 311 314 316 315 314 313 311 309 311 312 312 312 310 310
190 202 209 215 235 243 251 259 268 287 286 282 286 302 296 283 254 255 273 287 258 262 266 276 277 279 285 288 285 286 289 297 307 308 307 309 311 311 309 307 307 307 309 310 312 312 311 309 309
195 204 216 221 215 223 228 244 250 281 272 264 268 292 309 355 330 259 265 267 261 270 275 274 280 282 287 289 288 290 291 295 300 303 306 306 305 304 306 306 308 309 309 311 312 311 309 309 308
205 215 223 226 226 223 218 239 264 261 254 269 281 293 316 332 337 332 286 259 241 262 276 283 287 292 295 298 299 297 296 295 299 302 301 299 302 305 305 307 309 309 309 310 308 309 311 312 311
217 225 233 209 219 219 221 240 265 262 263 268 274 294 306 316 330 322 312 287 267 266 282 290 292 294 297 299 300 298 298 299 300 299 298 301 302 306 308 305 306 308 309 308 308 312 314 314 314
211 222 216 231 228 222 232 233 255 264 256 257 282 282 296 302 324 310 326 302 277 275 278 280 284 290 297 300 299 296 299 300 299 297 296 297 303 308 305 304 303 306 307 308 314 316 320 320 317
221 216 214 230 233 244 236 235 245 251 254 260 262 280 290 299 298 297 313 335 335 325 299 269 274 284 290 293 292 288 292 293 294 294 300 303 310 308 304 302 302 306 307 312 315 320 321 319 316
Height
5902 5903 5905 5905 5904 5902 5903 5903 5901 5902 5904 5903 5902 5903 5904 5906 5904 5909 5906 5905 5905 5907 5908 5909 5909 5910 5910 5910 5911 5912 5913 5915 5913 5913 5913 5912 5914 5916 5914 5913 5913 5912 5912 5913 5913 5912 5912 5910 5909
5905 5905 5905 5907 5905 5903 5904 5904 5906 5904 5904 5906 5906 5905 5907 5908 5905 5908 5909 5908 5907 5909 5911 5911 5914 5912 5913 5913 5914 5915 5916 5918 5915 5916 5916 5916 5917 5916 5915 5914 5914 5914 5913 5914 5913 5913 5912 5911 5910
5906 5904 5910 5909 5907 5905 5908 5906 5908 5907 5905 5904 5906 5906 5908 5908 5908 5910 5910 5912 5911 5913 5915 5915 5916 5916 5916 5916 5917 5918 5919 5919 5919 5920 5918 5919 5919 5919 5917 5917 5917 5916 5915 5914 5914 5913 5913 5912 5912
5911 5912 5912 5908 5910 5910 5912 5912 5913 5910 5908 5909 5909 5910 5911 5910 5910 5911 5913 5914 5914 5916 5917 5917 5918 5917 5918 5919 5920 5920 5920 5921 5921 5920 5921 5921 5920 5919 5920 5919 5919 5918 5917 5916 5915 5914 5913 5913 5914
5915 5914 5910 5909 5911 5909 5912 5913 5914 5913 5913 5912 5910 5912 5911 5912 5911 5913 5914 5915 5916 5917 5918 5919 5918 5918 5919 5920 5921 5921 5921 5921 5921 5922 5923 5922 5920 5921 5921 5920 5920 5919 5918 5917 5916 5915 5914 5913 5914
5918 5914 5913 5912 5910 5912 5912 5914 5915 5915 5915 5913 5912 5914 5914 5913 5912 5914 5915 5916 5918 5918 5919 5919 5920 5920 5920 5921 5921 5921 5922 5922 5923 5924 5924 5922 5922 5921 5920 5920 5919 5919 5919 5917 5916 5915 5914 5913 5914
5921 5918 5917 5915 5915 5914 5916 5918 5920 5919 5917 5917 5916 5916 5917 5915 5915 5915 5916 5917 5918 5919 5920 5921 5921 5922 5923 5923 5923 5924 5924 5925 5925 5925 5924 5922 5922 5921 5921 5920 5919 5918 5918 5918 5916 5915 5914 5912 5913
5923 5922 5923 5922 5919 5919 5919 5920 5921 5923 5922 5920 5919 5917 5918 5918 5916 5917 5918 5919 5920 5920 5921 5922 5922 5923 5923 5924 5925 5925 5926 5926 5926 5925 5923 5923 5922 5921 5920 5918 5917 5917 5917 5917 5915 5914 5913 5912 5911
5922 5924 5920 5926 5924 5921 5922 5924 5926 5924 5924 5922 5920 5920 5919 5917 5918 5918 5920 5920 5921 5922 5923 5923 5923 5924 5925 5926 5926 5926 5926 5927 5926 5925 5923 5922 5921 5920 5919 5918 5917 5915 5915 5915 5914 5912 5911 5910 5910
5920 5920 5919 5925 5926 5927 5924 5926 5929 5926 5925 5924 5922 5922 5922 5922 5921 5921 5921 5922 5923 5923 5924 5925 5926 5927 5927 5927 5927 5927 5928 5927 5926 5924 5923 5921 5921 5920 5918 5918 5915 5913 5913 5913 5911 5909 5908 5908 5907
5917 5919 5923 5925 5928 5927 5926 5926 5926 5927 5926 5925 5924 5923 5923 5922 5923 5923 5923 5923 5925 5926 5927 5928 5928 5928 5927 5928 5927 5927 5927 5927 5926 5925 5923 5921 5919 5919 5918 5917 5915 5913 5912 5911 5908 5906 5905 5904 5904
5921 5919 5922 5925 5925 5926 5927 5926 5929 5927 5925 5924 5925 5925 5924 5924 5923 5924 5925 5926 5926 5927 5928 5929 5929 5929 5928 5928 5927 5927 5927 5926 5925 5924 5922 5920 5919 5917 5916 5915 5914 5912 5909 5908 5905 5904 5902 5901 5901
5920 5921 5923 5926 5929 5929 5929 5927 5930 5927 5926 5925 5926 5926 5926 5925 5924 5926 5926 5927 5928 5928 5929 5930 5930 5930 5928 5928 5928 5928 5927 5925 5924 5923 5920 5918 5917 5916 5915 5914 5912 5910 5907 5906 5904 5902 5901 5900 5898
5922 5922 5926 5930 5932 5931 5932 5932 5931 5929 5928 5927 5927 5927 5926 5925 5925 5925 5927 5928 5928 5929 5929 5930 5930 5930 5930 5930 5929 5928 5926 5925 5923 5922 5920 5918 5916 5915 5913 5912 5910 5909 5907 5905 5903 5901 5899 5898 5897
5924 5925 5926 5931 5932 5930 5930 5931 5931 5931 5930 5930 5928 5927 5927 5926 5927 5927 5927 5927 5929 5930 5930 5931 5931 5930 5931 5930 5930 5929 5928 5926 5924 5922 5920 5918 5915 5914 5913 5910 5910 5907 5906 5904 5902 5900 5898 5896 5895
5920 5921 5924 5928 5930 5932 5933 5931 5930 5932 5933 5932 5931 5929 5927 5926 5926 5928 5928 5927 5929 5929 5930 5930 5930 5930 5930 5931 5930 5929 5927 5925 5924 5922 5919 5918 5915 5914 5912 5910 5909 5907 5904 5902 5900 5899 5897 5895 5893
5920 5920 5923 5926 5928 5931 5933 5932 5931 5932 5933 5934 5933 5931 5929 5927 5927 5927 5927 5928 5929 5930 5930 5930 5930 5930 5930 5930 5929 5928 5927 5925 5923 5922 5918 5916 5914 5913 5911 5909 5907 5906 5904 5902 5899 5897 5894 5892 5890
5918 5920 5921 5924 5926 5928 5930 5930 5931 5930 5931 5931 5932 5930 5930 5928 5929 5928 5928 5928 5928 5929 5930 5929 5929 5929 5929 5929 5928 5927 5926 5924 5922 5920 5918 5916 5914 5912 5910 5909 5907 5905 5902 5900 5898 5895 5892 5890 5888
5917 5921 5922 5924 5924 5925 5927 5929 5931 5931 5929 5931 5932 5931 5930 5928 5928 5929 5929 5928 5928 5928 5929 5929 5930 5929 5928 5927 5926 5925 5924 5923 5921 5920 5918 5916 5914 5912 5910 5908 5906 5903 5901 5898 5896 5894 5891 5889 5887
5914 5915 5920 5923 5923 5924 5925 5926 5930 5930 5927 5928 5928 5929 5928 5926 5926 5927 5928 5928 5927 5928 5929 5928 5929 5928 5927 5926 5925 5923 5922 5920 5918 5917 5915 5914 5912 5910 5908 5906 5904 5901 5898 5896 5893 5890 5887 5885 5883
5909 5912 5917 5920 5924 5920 5921 5921 5926 5927 5927 5926 5924 5926 5927 5924 5925 5926 5926 5927 5927 5927 5927 5927 5927 5927 5926 5925 5923 5922 5919 5917 5915 5913 5912 5909 5907 5905 5904 5902 5899 5897 5895 5892 5889 5886 5884 5880 5877
5905 5909 5916 5919 5918 5915 5919 5919 5921 5921 5923 5925 5924 5923 5925 5924 5924 5924 5924 5924 5924 5924 5925 5926 5926 5924 5923 5922 5921 5918 5916 5915 5913 5911 5908 5905 5903 5900 5898 5895 5893 5891 5888 5886 5883 5880 5878 5875 5871
5905 5908 5910 5914 5915 5915 5913 5915 5918 5915 5918 5921 5922 5922 5923 5923 5922 5921 5923 5921 5921 5922 5923 5923 5923 5921 5919 5918 5916 5915 5915 5913 5910 5907 5904 5902 5900 5897 5894 5891 5888 5885 5882 5879 5876 5873 5871 5868 5866
5902 5902 5907 5908 5908 5907 5910 5912 5911 5911 5914 5916 5920 5921 5921 5919 5917 5917 5919 5920 5918 5918 5918 5918 5918 5917 5915 5914 5913 5911 5909 5907 5905 5901 5899 5897 5893 5890 5888 5885 5882 5880 5877 5874 5871 5868 5864 5860 5858
5893 5897 5899 5902 5899 5900 5906 5905 5907 5908 5910 5914 5916 5916 5916 5915 5915 5913 5912 5914 5913 5912 5913 5912 5911 5911 5909 5907 5907 5905 5903 5900 5897 5895 5893 5891 5889 5886 5883 5880 5877 5875 5871 5867 5864 5860 5857 5853 5850
5886 5891 5892 5893 5895 5899 5902 5900 5907 5908 5910 5909 5909 5911 5911 5911 5907 5907 5907 5907 5907 5907 5906 5906 5907 5905 5904 5902 5901 5899 5897 5895 5892 5890 5887 5885 5883 5881 5877 5874 5870 5867 5863 5860 5856 5852 5849 5845 5841
5882 5881 5889 5890 5892 5894 5898 5900 5900 5902 5903 5903 5904 5902 5906 5907 5904 5904 5903 5904 5904 5904 5901 5902 5902 5900 5899 5897 5895 5894 5892 5891 5889 5886 5884 5881 5878 5875 5872 5867 5863 5860 5857 5854 5850 5845 5842 5838 5832
5873 5881 5881 5881 5885 5887 5890 5890 5892 5895 5897 5899 5899 5899 5900 5900 5900 5901 5900 5901 5902 5902 5901 5898 5897 5896 5895 5893 5891 5889 5887 5885 5883 5880 5877 5875 5871 5868 5864 5860 5857 5853 5851 5846 5842 5837 5832 5828 5824
5867 5870 5875 5880 5881 5881 5884 5885 5888 5890 5891 5893 5894 5896 5894 5894 5896 5897 5896 5897 5899 5899 5898 5896 5893 5892 5890 5888 5886 5883 5882 5880 5877 5875 5871 5869 5865 5861 5857 5853 5850 5846 5842 5838 5833 5828 5823 5817 5812
5863 5866 5869 5872 5875 5876 5878 5880 5881 5884 5886 5887 5890 5891 5892 5890 5894 5895 5893 5893 5893 5893 5892 5891 5888 5886 5884 5881 5880 5878 5875 5873 5870 5868 5864 5861 5857 5853 5850 5847 5843 5838 5834 5830 5825 5819 5813 5808 5803